Regional Weather Roundup
Issued by NWS

Home | Current Version | Previous Version | Graphics & Text | Print | Product List | Glossary On
Versions: 1 2 3 4 5 6 7 8 9 10 11 12 13 14 15 16 17 18 19 20 21 22 23 24 25 26 27 28
000
ASUS45 KTFX 281010
RWRMT
MONTANA REGIONAL WEATHER ROUNDUP
NATIONAL WEATHER SERVICE GREAT FALLS MT
400 AM MDT WED SEP 28 2016

NOTE: "FAIR" INDICATES FEW OR NO CLOUDS BELOW 12000 FEET WITH NO
SIGNIFICANT WEATHER AND/OR OBSTRUCTIONS TO VISIBILITY.

MTZ001>007-043-281100-
WEST OF THE DIVIDE

CITY           SKY/WX    TMP DP  RH WIND       PRES   REMARKS
KALISPELL      CLEAR     58  39  49 N10       30.12R
MISSOULA       PTCLDY    48  44  86 CALM      30.14R
BUTTE          CLEAR     41  36  82 S3        30.25S
MULLAN PASS    CLEAR     56  42  59 SE6       30.21S
ANACONDA         N/A     45  36  70 SW6       30.24S
DEER LODGE       N/A     48  41  76 W3        30.25S
EUREKA           N/A     48  41  76 CALM      30.15R
HAMILTON         N/A     48  41  76 CALM      30.14S
LIBBY            N/A     45  43  93 CALM      30.11R
RONAN            N/A     58  45  62 N6        30.14R
$$

MTZ008-052>055-281100-
SOUTHWEST MONTANA

CITY           SKY/WX    TMP DP  RH WIND       PRES   REMARKS
BOZEMAN        CLEAR     46  40  79 VRB3      30.24R
W YELLOWSTONE    N/A     32  30  93 CALM      30.35S
ENNIS          CLEAR     45  36  70 CALM      30.31R
THREE FORKS      N/A     52  52 100 CALM      30.20R
TWIN BRIDGES     N/A     41  33  73 CALM      30.19S
$$

MTZ009-010-012-014-046-048-049-054-281100-
EAST SLOPES AND CENTRAL MONTANA

CITY           SKY/WX    TMP DP  RH WIND       PRES   REMARKS
CUT BANK       PTCLDY    38  34  85 NW9       30.33R WCI  31
GREAT FALLS    CLEAR     40  36  86 NW3       30.32R
MALMSTROM AFB  CLEAR     47  39  76 MISG      30.32R
HELENA         CLEAR     51  38  60 W9        30.26S
AUGUSTA          N/A     42  36  78 N8        30.32S
BOWMANS CRNR     N/A     43  36  76 N8        30.30S
CHOTEAU          N/A     41  37  87 N10       30.34S
CONRAD           N/A     44  40  86 W5        30.31S
FAIRFIELD        N/A     42  36  78 NW5       30.31S
POWER            N/A     40  36  85 N8        30.31R
RAYNESFORD       N/A     45  40  81 W2        30.31S
$$

MTZ011-013-016-021-045-047-050-051-281100-
NORTH CENTRAL MONTANA

CITY           SKY/WX    TMP DP  RH WIND       PRES   REMARKS
HAVRE          CLEAR     48  41  76 NE7       30.31R
LEWISTOWN      CLEAR     43  40  89 SW6       30.30S
N BAR RANCH      N/A     46  43  87 NW8       30.31R
CHINOOK          N/A     48  43  81 W3        30.31R
DENTON           N/A     49  41  75 N2        30.26R
GEYSER           N/A     42  36  78 N8        30.32S
GRASS RANGE      N/A     46  43  88 SW6       30.26R
JUDITH GAP       N/A     45  42  87 N17G24    30.29R
ROY              N/A     47  45  91 MISG      30.27R
STANFORD         N/A     46  40  82 NW10      30.30S
WINIFRED         N/A     47  43  86 MISG      30.29R
$$

MTZ017>020-022>027-061-062-281100-
NORTHEAST MONTANA

CITY           SKY/WX    TMP DP  RH WIND       PRES   REMARKS
GLASGOW        CLEAR     53  44  71 NW13G20   30.18R
JORDAN           N/A     52  47  83 W7        30.20R
SIDNEY         CLEAR     57  49  74 NW18      30.12R
WOLF POINT     CLEAR     57  47  69 VRB7      30.17R
PLENTYWOOD       N/A     52  46  82 NW17G23   30.14R
POPLAR           N/A     55  46  71 N12       30.17R
$$

MTZ028>42-056>058-281100-
SOUTHCENTRAL AND SOUTHEAST MONTANA

CITY           SKY/WX    TMP DP  RH WIND       PRES   REMARKS
BAKER          CLEAR     48  44  86 CALM      30.14R
BILLINGS       CLEAR     55  44  66 N10       30.21R
LIVINGSTON     CLEAR     50  42  74 W3        30.25R
MILES CITY     CLEAR     51  45  79 NW12      30.14R
BIG TIMBER     CLEAR     50  41  71 VRB5      30.28R
FORSYTH          N/A     54  48  82 W3        30.17R
HARLOWTON        N/A     50  43  75 N21G29    30.25R
LAUREL           N/A     51  41  69 CALM      30.18R
ROUNDUP          N/A     54  43  66 N6        30.14R
$$

REGIONAL REPORTS...DAKOTAS

CITY           SKY/WX    TMP DP  RH WIND       PRES   REMARKS
WILLISTON      CLEAR     53  48  83 N8        30.12R
MINOT          CLEAR     42  37  82 E3        30.14R
DICKINSON      CLEAR     47  42  83 S10       30.09R
BEACH            N/A     46  46 100 NW6       30.15R
CROSBY           N/A     46  46 100 W5        30.14R
WATFORD CITY     N/A     45  45 100 W3        30.12R
BISMARCK       CLOUDY    38  36  92 E8        30.16R
GRAND FORKS    CLOUDY    40  38  93 NW6       30.14R
FARGO          CLOUDY    39  37  92 N6        30.13R
BUFFALO SD       N/A     49  44  83 W7        30.07R
RAPID CITY     CLEAR     54  40  59 NW10      30.15R
$$

REGIONAL REPORTS...WYOMING/IDAHO/WASHINGTON

CITY           SKY/WX    TMP DP  RH WIND       PRES   REMARKS
GILLETTE       CLEAR     45  42  89 CALM      30.22R
SHERIDAN       CLEAR     46  40  79 CALM      30.20R
BUFFALO WY     CLEAR     58  35  42 W9        30.26R
CODY           CLEAR     55  41  59 SW6       30.26S
YELLOWSTONE LA   N/A     32  32 100 CALM      30.41F
IDAHO FALLS    CLEAR     44  40  85 N7        30.18F
SALMON         CLEAR     43  37  81 CALM      30.18R
BOISE          CLEAR     63  40  42 SE10      30.01F
SPOKANE        PTCLDY    51  37  58 CALM      30.05S
$$

REGIONAL REPORTS...ALBERTA

CITY           SKY/WX    TMP DP  RH WIND       PRES   REMARKS
EDMONTON       PTCLDY    37  27  65 W5        30.33R
CALGARY        CLOUDY    48  36  61 E6        30.32S
LETHBRIDGE     CLOUDY    48  39  71 S8        30.33S
MEDICINE HAT   CLOUDY    46  39  76 CALM      30.33R
WATERTON GATE    N/A     45  36  70 N6          N/A
CARDSTON         N/A     45  41  87 SE2         N/A
MILK RIVER       N/A     37  34  87 NW3         N/A
ONEFOUR          N/A     41  36  81 NE6         N/A
$$

REGIONAL REPORTS...SASKATCHEWAN

CITY           SKY/WX    TMP DP  RH WIND       PRES   REMARKS
SWIFT CURRENT  PTCLDY    41  39  93 W5        30.29R
REGINA         CLEAR     50  45  81 N13G20    30.18R
SASKATOON      CLEAR     36  36 100 NW9       30.29R WCI  29
CYPRESS HILLS    N/A     41  34  75 NE7         N/A
$$




USA.gov is the U.S. government's official web portal to all federal, state and local government web resources and services.